TimePDT,TemperatureF,Dew PointF,Humidity,Sea Level PressureIn,VisibilityMPH,Wind Direction,Wind SpeedMPH,Gust SpeedMPH,PrecipitationIn,Events,Conditions,WindDirDegrees,DateUTC
12:52 AM,66.9,21.9,18,29.81,-9999.0,ESE,8.1,-,N/A,,Unknown,120,2013-07-21 07:52:00
1:52 AM,64.9,25.0,22,29.81,-9999.0,ENE,3.5,-,N/A,,Unknown,70,2013-07-21 08:52:00
2:52 AM,59.0,24.1,26,29.82,-9999.0,East,3.5,-,N/A,,Unknown,80,2013-07-21 09:52:00
3:52 AM,64.9,25.0,22,29.80,-9999.0,North,3.5,-,N/A,,Unknown,10,2013-07-21 10:52:00
4:52 AM,57.9,25.0,28,29.84,-9999.0,SSE,6.9,-,N/A,,Unknown,150,2013-07-21 11:52:00
5:52 AM,57.0,25.0,29,29.85,-9999.0,SE,8.1,-,N/A,,Unknown,140,2013-07-21 12:52:00
6:52 AM,68.0,27.0,21,29.84,-9999.0,SSW,3.5,-,N/A,,Unknown,200,2013-07-21 13:52:00
7:52 AM,75.0,27.0,17,29.84,-9999.0,Calm,Calm,-,N/A,,Unknown,0,2013-07-21 14:52:00
8:52 AM,80.1,28.0,15,29.84,-9999.0,Calm,Calm,-,N/A,,Unknown,0,2013-07-21 15:52:00
9:52 AM,84.0,27.0,13,29.84,-9999.0,Variable,3.5,-,N/A,,Unknown,0,2013-07-21 16:52:00
10:52 AM,88.0,23.0,9,29.82,-9999.0,ENE,6.9,-,N/A,,Unknown,70,2013-07-21 17:52:00
11:52 AM,91.0,21.0,8,29.81,-9999.0,Variable,4.6,-,N/A,,Unknown,0,2013-07-21 18:52:00
12:52 PM,96.1,23.0,7,29.79,-9999.0,West,8.1,23.0,N/A,,Unknown,280,2013-07-21 19:52:00
1:52 PM,96.1,21.0,7,29.78,-9999.0,Variable,5.8,16.1,N/A,,Unknown,0,2013-07-21 20:52:00
2:52 PM,98.1,14.0,5,29.77,-9999.0,WNW,5.8,23.0,N/A,,Unknown,290,2013-07-21 21:52:00
3:52 PM,100.9,17.1,5,29.74,-9999.0,SSW,13.8,21.9,N/A,,Unknown,200,2013-07-21 22:52:00
4:52 PM,102.0,15.1,4,29.73,-9999.0,West,15.0,21.9,N/A,,Unknown,260,2013-07-21 23:52:00
5:52 PM,100.9,12.9,4,29.73,-9999.0,WNW,10.4,-,N/A,,Unknown,300,2013-07-22 00:52:00
6:52 PM,99.0,8.1,4,29.71,-9999.0,West,10.4,-,N/A,,Unknown,270,2013-07-22 01:52:00
7:52 PM,93.9,8.1,4,29.72,-9999.0,WNW,4.6,-,N/A,,Unknown,300,2013-07-22 02:52:00
8:52 PM,82.9,14.0,8,29.75,-9999.0,NE,10.4,-,N/A,,Unknown,40,2013-07-22 03:52:00
9:52 PM,80.1,12.0,8,29.77,-9999.0,NE,6.9,-,N/A,,Unknown,50,2013-07-22 04:52:00
10:52 PM,73.0,12.0,10,29.78,-9999.0,ENE,6.9,-,N/A,,Unknown,70,2013-07-22 05:52:00
11:52 PM,66.0,12.0,12,29.80,-9999.0,Calm,Calm,-,N/A,,Unknown,0,2013-07-22 06:52:00